Theta_e
322 323 323 323 322 319 316 313 314 313 313 312 312 311 311 311 310 309 309 309 307 307 306 306 305 305 305 306 306 305 305 305 306 306 306 306 306 306 306 306 307 307 307 307 307 308 308 308 310 311 311 310 309 309 308 308 309 309 309 309 309 310 310 309 309 309 310 311 312
320 320 321 320 318 315 313 313 312 311 311 310 310 309 309 308 307 307 306 306 306 305 305 305 305 305 305 305 305 305 304 304 304 304 304 304 304 305 305 305 305 306 306 306 306 307 307 307 307 308 308 308 307 306 306 306 306 306 306 306 306 307 307 306 306 306 307 307 309
319 320 319 318 315 312 311 310 309 308 308 308 308 307 307 307 306 305 305 305 305 305 304 303 303 303 304 303 304 304 304 303 303 303 303 303 303 303 304 304 304 304 305 305 305 305 305 305 306 306 306 305 305 305 305 305 305 305 304 304 304 305 305 305 304 305 305 305 305
318 317 316 313 311 310 309 309 307 307 307 306 306 306 305 305 305 304 303 303 303 303 303 303 303 303 303 303 303 303 303 303 303 302 302 302 302 302 302 303 303 303 303 304 304 304 304 304 304 304 304 304 304 304 304 304 304 304 304 304 304 304 304 304 304 304 304 303 303
313 312 311 310 309 309 308 307 307 306 306 305 305 304 304 304 303 303 303 302 302 302 302 302 302 302 302 302 302 302 302 302 302 301 301 301 301 301 301 302 302 302 302 302 303 304 304 304 304 303 303 303 303 303 303 304 304 303 303 303 303 303 303 303 303 303 303 303 303
308 308 307 307 307 306 306 305 305 305 305 304 303 303 303 303 302 302 301 301 301 301 302 302 302 302 301 301 301 301 301 301 301 301 300 300 300 300 300 300 301 301 301 301 301 302 303 303 303 302 302 302 302 302 302 303 303 303 302 302 303 303 303 303 303 303 303 302 302
305 305 304 304 304 304 304 303 303 303 303 302 302 301 301 301 300 300 300 300 300 300 301 301 301 301 300 300 300 299 299 299 299 299 299 299 299 299 299 299 299 300 300 300 300 300 301 301 301 301 301 301 301 301 301 301 302 302 302 301 302 302 302 302 303 303 302 302 301
302 302 302 302 302 302 302 302 302 302 301 300 300 300 299 299 299 299 299 299 299 299 299 299 299 299 299 298 298 298 298 298 298 298 298 298 298 298 298 298 298 299 299 299 299 299 299 299 299 299 299 299 300 300 300 300 301 301 301 300 301 301 302 302 302 302 302 301 301
299 299 299 299 299 299 299 299 299 299 299 299 298 298 298 298 298 298 298 297 297 298 297 297 297 297 297 296 296 296 296 296 296 296 296 296 296 296 296 297 297 297 297 298 298 298 298 299 299 298 299 299 299 299 299 300 300 300 300 300 300 301 301 301 301 301 301 301 300
298 298 298 298 297 297 297 297 297 297 297 296 296 296 297 297 296 296 295 296 295 296 295 295 295 294 294 294 294 294 294 294 294 294 295 295 295 295 294 295 295 295 295 296 297 298 298 298 298 298 298 298 298 299 299 299 299 299 299 300 300 300 300 300 300 300 300 300 300
297 297 297 296 296 296 296 295 295 295 294 294 294 294 294 294 294 294 294 294 293 293 293 293 293 292 292 292 292 292 292 292 292 292 293 293 293 293 293 293 293 293 294 294 295 296 296 296 296 296 297 297 297 297 298 298 298 298 298 299 299 300 299 299 300 300 300 299 299
295 295 295 295 295 295 294 294 293 293 293 293 293 293 293 292 292 293 293 292 292 292 292 292 291 291 290 290 290 291 291 290 291 291 291 291 291 291 292 292 292 292 292 293 293 293 294 294 294 294 294 295 295 295 296 296 296 296 297 297 298 298 298 298 299 299 299 299 299
294 294 294 294 294 293 293 293 292 292 292 292 292 292 292 292 292 292 292 292 291 291 291 291 291 290 289 289 289 290 290 290 290 290 290 290 290 290 290 291 291 291 291 292 292 292 292 292 292 292 293 293 293 294 294 294 294 294 295 295 296 296 296 296 296 297 297 298 297
293 293 293 293 292 292 292 291 291 291 291 291 291 291 291 291 292 292 291 291 291 290 290 290 290 289 289 288 289 289 289 289 289 289 289 289 289 289 290 290 290 290 291 291 291 291 291 291 291 292 292 292 292 293 293 293 293 293 293 293 293 293 294 294 294 295 295 295 295
291 291 291 291 291 291 291 290 290 290 290 290 290 290 290 290 291 291 290 290 290 290 290 289 288 288 288 288 288 288 288 288 288 288 288 288 288 289 289 290 290 290 290 290 290 290 290 290 291 291 291 291 291 292 292 292 292 292 292 292 292 293 293 293 293 293 294 293 294
289 289 290 290 290 289 289 289 289 289 289 289 289 289 289 290 290 290 290 289 289 289 288 287 287 287 287 288 288 287 287 287 287 287 287 288 288 288 289 289 289 289 290 290 290 290 290 290 290 290 290 291 291 291 291 291 292 292 292 292 292 292 292 292 293 293 293 292 293
288 288 288 288 288 288 288 288 288 288 288 288 289 289 289 289 289 289 289 288 288 288 287 286 286 286 287 287 287 287 287 287 287 287 287 287 288 288 288 288 288 288 289 289 290 290 290 290 291 290 290 290 290 290 290 290 291 291 291 291 291 291 291 292 292 292 291 292 292
288 288 288 288 287 287 287 288 288 288 288 288 288 288 288 288 288 288 288 288 287 287 287 286 286 286 286 286 287 287 287 287 287 287 287 287 287 287 287 287 287 287 288 289 289 289 290 290 290 290 290 290 290 290 290 290 290 290 290 290 290 291 291 291 291 291 291 291 291
287 287 287 287 287 287 287 288 288 288 288 288 288 288 288 288 288 287 287 287 287 286 286 286 286 286 286 286 286 287 287 287 286 286 286 286 286 286 286 286 286 286 287 287 288 289 289 290 290 290 290 290 289 289 290 290 289 289 289 289 290 290 290 290 290 290 290 290 291
287 287 287 287 287 287 287 287 288 288 288 288 288 288 288 288 288 287 287 287 286 286 286 286 286 286 286 286 286 286 287 287 286 285 285 286 286 286 286 285 285 285 286 286 287 288 288 289 289 290 289 290 289 289 289 289 289 289 289 289 289 289 289 289 289 289 289 289 289
286 287 287 287 287 287 287 287 288 288 288 288 288 288 288 288 288 287 287 287 286 286 286 286 286 286 286 286 286 285 286 286 286 285 285 286 286 286 286 285 285 285 286 286 287 288 288 289 289 289 289 289 289 289 289 288 288 288 288 288 288 288 288 288 288 288 288 288 288
287 287 287 287 287 287 287 288 288 288 288 287 288 287 287 287 287 287 286 286 286 286 286 286 285 285 285 285 285 285 285 285 285 285 285 285 285 285 285 285 285 285 286 286 287 288 288 289 289 289 289 289 289 289 289 288 288 287 287 287 287 287 287 287 287 287 287 287 287
287 287 287 287 287 288 288 287 287 287 287 287 287 286 286 286 286 286 286 286 286 286 285 285 284 284 283 283 283 283 284 284 284 284 284 284 284 284 284 285 285 285 286 287 287 288 289 289 289 289 289 289 289 289 288 288 288 287 286 286 286 286 286 286 286 286 286 286 286
287 287 287 287 287 287 287 287 286 286 286 286 285 285 285 285 285 285 284 284 284 284 284 284 283 282 282 282 282 282 282 282 283 282 283 283 283 283 283 283 284 284 285 287 289 290 290 290 289 289 288 288 287 287 287 286 286 285 285 285 285 285 285 285 285 285 285 285 285
287 287 287 287 287 286 286 286 285 285 285 285 284 284 284 284 284 284 284 283 283 283 283 282 282 282 282 281 281 281 281 281 281 281 281 282 282 281 282 282 282 282 284 287 291 293 293 293 291 289 287 286 286 285 285 285 284 284 284 284 284 284 284 283 284 284 283 283 283
287 287 286 286 286 286 285 285 285 284 284 284 283 283 283 283 283 283 282 282 282 282 282 281 282 282 282 281 281 281 281 280 280 280 280 281 280 281 281 281 281 282 284 289 292 293 294 294 294 291 288 284 284 284 284 284 283 283 283 283 283 282 282 282 282 282 282 282 281
285 285 285 285 285 285 284 284 284 284 283 283 283 283 282 282 282 282 282 281 281 281 281 281 281 282 283 281 280 280 280 280 280 280 279 279 280 280 280 281 281 282 286 290 292 293 293 294 294 293 291 286 284 283 283 282 282 282 281 281 280 280 280 280 280 280 280 281 280
284 284 284 284 284 284 284 283 283 283 283 283 282 282 282 281 281 281 281 281 280 280 280 280 280 281 281 280 280 279 279 279 279 279 279 279 280 280 280 280 280 283 287 291 292 292 293 293 293 293 292 289 284 282 281 281 281 280 279 279 279 278 278 278 279 279 279 279 280
283 283 283 283 282 282 282 282 282 282 282 281 281 281 281 281 281 280 280 280 280 280 280 280 280 280 280 280 279 279 279 279 279 279 279 279 279 279 279 280 280 283 287 292 292 292 292 292 292 293 292 290 284 281 280 280 280 279 279 279 278 278 278 278 278 278 279 279 279
283 282 282 281 281 281 281 281 281 280 280 280 280 280 280 280 280 280 280 280 280 280 280 279 279 279 279 278 278 279 279 279 279 279 279 279 279 279 279 280 279 282 287 291 292 292 292 292 292 292 292 290 285 282 280 280 279 278 278 278 278 277 277 277 277 277 277 278 278
282 282 281 281 281 280 280 280 280 279 279 280 280 280 280 280 280 279 279 279 279 280 280 279 278 278 278 278 278 278 278 278 278 279 279 278 279 279 279 278 278 281 287 291 291 291 291 292 291 291 291 290 285 282 279 279 278 278 277 277 277 277 277 277 277 277 277 277 277
282 281 281 281 280 280 280 280 280 280 279 279 279 279 279 279 279 279 279 279 279 279 279 278 278 278 278 278 278 278 278 279 279 279 279 279 278 278 278 279 279 282 287 291 291 291 291 291 291 291 291 289 285 281 278 278 278 278 278 277 277 277 277 278 278 277 277 277 277
281 281 281 280 280 280 280 280 280 280 279 279 279 279 279 279 279 279 279 279 279 278 278 278 278 278 278 278 279 279 279 279 279 279 279 279 279 279 279 280 279 283 288 291 291 291 291 291 291 291 290 288 285 281 279 279 278 278 278 278 278 278 277 277 277 277 277 277 277
281 281 280 280 280 280 280 279 279 279 279 279 279 279 279 279 279 279 280 280 280 279 279 278 278 278 278 279 279 279 279 279 279 278 278 278 278 279 279 279 279 283 289 291 291 291 291 291 291 291 290 288 283 280 278 278 278 278 278 277 277 278 278 277 277 277 277 277 277
280 280 280 279 279 279 279 279 279 279 279 279 279 279 279 279 279 279 280 281 280 279 279 279 278 278 278 278 278 278 278 278 278 278 277 278 277 278 278 278 278 283 289 291 291 291 291 291 292 291 289 286 282 279 278 277 277 277 277 277 277 277 277 277 277 278 277 277 277
279 279 279 279 279 279 279 279 279 279 278 278 278 278 278 278 279 279 280 280 279 279 278 278 278 278 278 277 277 277 277 276 277 277 277 278 277 276 276 277 277 282 287 290 290 291 291 291 291 291 288 284 280 279 278 277 277 276 276 276 277 277 277 278 278 278 278 278 278
279 279 279 278 278 278 278 278 278 278 278 278 278 278 278 278 278 278 279 279 278 277 277 277 277 277 277 276 276 276 276 275 276 277 277 278 277 276 276 277 276 280 285 289 289 290 290 291 291 291 288 284 280 279 279 278 277 276 276 276 277 277 278 278 278 278 278 278 280
279 278 278 278 278 278 278 277 277 277 277 277 277 277 277 277 277 278 278 279 277 276 276 276 276 276 276 276 275 275 275 275 276 276 276 276 276 277 276 276 276 278 283 288 288 289 289 290 290 290 289 285 283 282 281 279 277 277 277 277 277 278 278 279 279 278 278 278 283
278 278 278 277 277 277 277 277 276 276 276 276 276 276 276 276 277 277 277 277 276 275 275 275 274 274 275 277 276 275 275 275 275 276 276 275 276 278 278 276 276 278 281 286 287 288 288 289 289 290 289 288 285 284 282 280 278 278 278 278 278 279 280 280 279 279 279 279 284
277 277 277 276 276 276 276 275 275 275 275 275 275 275 275 275 276 276 276 275 274 273 273 273 273 274 275 278 276 275 274 275 274 275 276 276 277 279 280 276 276 277 280 284 286 287 288 288 289 289 289 288 286 284 283 280 278 278 278 279 280 281 281 281 279 279 279 279 282
276 276 276 276 275 275 275 274 274 274 274 274 274 275 275 276 275 275 274 274 273 273 273 273 273 273 275 277 276 274 274 274 274 275 275 276 277 278 279 276 276 276 278 282 285 287 287 288 288 289 289 288 286 284 282 280 278 278 279 280 282 283 283 282 280 280 279 278 279
Wind_Speed
5 4 3 2 1 2 2 3 4 4 4 4 4 4 4 4 4 4 3 4 4 4 4 4 4 4 5 6 7 7 8 8 8 8 8 8 7 7 7 7 8 8 8 8 7 7 6 5 5 4 4 4 5 5 5 5 5 5 5 5 5 5 6 7 7 8 8 8 6
4 4 3 2 3 4 4 4 4 4 4 4 4 5 5 5 4 4 4 5 5 5 4 4 4 5 6 7 7 7 8 8 8 8 8 9 9 9 9 9 9 9 9 8 7 6 5 5 5 4 4 4 5 5 5 4 4 5 6 7 5 5 5 6 7 7 8 8 7
3 3 2 3 5 5 4 4 5 5 6 5 5 5 5 5 5 5 5 5 6 5 5 4 4 5 6 7 7 7 7 8 8 9 9 9 10 10 9 9 9 9 8 7 7 6 5 6 5 5 5 4 5 4 4 4 4 5 6 6 5 4 4 5 5 6 6 6 7
3 4 5 7 7 7 6 5 6 6 6 6 6 6 6 5 5 5 5 7 7 6 5 4 4 5 6 7 8 8 8 9 10 10 10 10 10 10 9 8 8 8 8 7 7 7 7 6 5 5 5 5 4 4 3 3 4 4 4 4 4 4 4 4 4 4 4 5 6
8 8 8 8 8 8 7 7 7 7 6 6 6 6 5 5 5 5 6 6 6 6 5 5 4 5 6 8 9 10 10 10 10 10 9 9 9 9 8 8 8 8 8 9 8 8 7 6 5 4 4 4 4 4 4 4 4 4 4 3 3 4 4 4 4 4 4 4 4
10 10 10 9 9 8 8 8 8 8 7 6 7 7 6 5 5 6 6 6 7 7 7 6 5 6 7 9 9 10 10 10 9 9 9 9 8 8 8 9 9 9 8 8 8 7 6 5 4 3 3 3 4 5 5 5 5 4 4 4 4 4 4 4 4 3 4 4 4
11 12 12 11 10 9 8 8 9 9 8 8 9 9 8 7 7 8 8 7 7 7 7 5 5 5 7 8 9 9 9 8 8 8 8 7 7 8 9 9 9 8 7 7 6 5 5 4 3 3 3 4 4 5 6 5 5 5 5 5 4 4 4 4 4 3 4 5 5
13 13 13 12 11 10 10 9 9 9 9 8 9 10 10 9 9 9 9 9 8 7 6 4 5 6 7 8 8 8 8 8 7 7 7 7 8 8 8 8 7 7 6 5 5 5 4 4 4 4 4 4 4 4 5 6 6 6 6 5 4 4 4 4 4 4 4 6 6
13 13 13 12 12 11 11 11 11 11 11 10 10 10 10 10 10 10 10 9 8 7 5 4 5 7 8 8 8 8 7 7 8 8 8 8 8 7 7 6 6 6 5 5 5 5 5 4 4 4 4 4 4 4 5 6 7 6 5 4 3 3 3 3 4 4 5 5 6
13 13 13 12 12 12 12 12 12 12 13 12 12 11 11 11 11 10 9 8 7 6 5 4 5 6 7 8 7 7 7 7 8 8 7 7 7 6 6 5 5 5 5 4 5 5 5 5 5 5 4 4 4 5 5 6 6 5 4 3 3 3 3 3 3 4 4 4 5
14 13 12 12 12 12 12 12 11 12 12 12 12 11 11 11 11 10 8 8 7 6 6 5 6 6 6 7 7 7 7 7 7 7 7 7 7 6 6 6 6 6 6 5 5 5 5 5 6 6 6 5 5 5 5 5 4 4 3 3 3 3 3 3 3 3 3 3 4
14 13 13 12 12 11 11 11 10 11 11 12 12 11 10 10 10 9 9 9 8 7 6 6 6 5 5 6 6 7 7 7 7 7 7 7 7 7 7 6 6 7 7 7 6 6 6 6 6 7 7 6 5 5 5 5 4 4 4 4 4 3 3 3 3 3 3 3 3
14 13 13 12 12 11 11 10 9 10 10 11 11 10 9 9 9 9 9 9 8 7 6 5 5 5 5 6 6 7 7 6 7 7 7 7 7 7 8 8 8 8 8 7 7 6 6 6 7 7 7 6 5 5 5 5 5 5 5 5 5 4 4 4 4 4 3 4 4
14 13 12 11 11 11 10 10 9 9 9 10 10 9 9 9 9 8 8 8 7 6 5 5 5 5 6 6 6 6 6 6 7 8 8 8 8 8 8 8 8 8 7 7 7 7 7 7 7 6 6 6 6 5 5 5 5 5 5 5 5 5 4 4 4 4 4 4 4
14 13 12 11 11 10 10 10 8 8 9 10 9 9 8 7 7 7 7 7 7 6 5 5 5 5 6 6 6 6 6 7 7 8 9 9 9 9 9 8 8 7 7 6 6 7 7 6 6 6 6 6 6 6 5 5 5 5 5 5 4 4 4 4 4 4 4 4 4
14 13 12 11 11 11 10 9 8 8 8 9 9 8 7 6 6 7 7 7 6 5 5 5 4 4 5 6 6 6 7 8 8 9 9 9 9 9 9 8 8 7 7 6 6 6 6 6 6 6 6 6 5 5 6 6 6 5 5 5 5 4 4 4 4 4 4 4 4
14 13 12 12 12 12 11 10 8 8 9 9 9 8 7 6 6 7 8 7 6 5 5 4 4 4 4 5 6 7 8 9 9 9 9 9 8 8 8 7 7 7 7 7 7 6 6 6 6 6 6 6 5 6 6 6 6 6 6 6 5 5 5 5 5 5 5 5 5
13 12 12 12 13 13 12 12 10 10 10 10 9 8 7 7 8 8 7 7 6 5 5 5 4 5 6 6 7 8 8 9 9 8 8 7 7 7 7 7 7 7 7 7 6 6 6 6 6 6 5 5 6 6 6 6 6 6 6 6 6 7 7 7 6 6 6 6 6
12 12 12 12 13 13 13 13 12 11 11 10 9 9 8 9 8 8 7 6 5 5 5 6 6 7 7 8 8 8 8 8 8 7 7 6 6 6 6 7 7 7 6 6 5 5 5 5 5 6 6 6 6 6 6 6 6 6 7 7 7 7 7 7 7 7 7 7 7
12 11 11 11 12 13 13 13 12 11 10 10 10 10 9 9 8 8 7 5 5 5 6 7 7 8 9 9 9 9 8 7 7 7 7 6 7 7 7 7 6 6 5 5 5 5 5 5 5 5 5 6 6 6 6 6 6 7 7 6 7 7 7 7 7 7 7 7 8
12 11 11 11 11 12 12 12 11 11 10 10 10 10 10 9 9 8 7 5 5 6 7 8 9 9 9 10 10 9 8 7 7 7 7 7 8 8 7 6 5 5 5 5 5 5 5 4 4 4 5 5 6 6 6 6 6 7 7 6 7 7 7 7 8 8 8 8 8
11 11 11 11 12 13 12 12 11 11 11 10 10 10 10 9 9 8 7 6 7 8 9 9 9 9 10 10 10 9 7 6 7 7 8 8 9 8 8 6 5 5 5 5 5 5 4 4 3 4 4 5 5 5 6 6 6 7 7 8 8 8 8 8 8 8 8 8 8
11 11 11 12 13 13 13 12 11 11 11 11 10 10 10 10 9 8 8 8 9 9 9 8 9 9 10 9 9 8 7 7 8 8 8 9 9 8 8 7 6 6 6 5 5 4 4 3 3 3 3 4 4 5 5 6 6 7 7 8 8 8 8 8 8 8 8 8 8
11 11 11 11 12 12 12 11 11 11 11 11 10 10 9 9 9 9 10 10 10 10 9 8 8 8 8 8 7 7 7 8 9 9 9 9 9 8 7 6 6 6 5 5 5 6 5 3 2 2 2 3 3 4 4 5 5 6 6 7 8 8 8 8 9 9 9 9 8
12 12 12 11 11 11 10 10 10 10 10 10 10 9 9 9 10 10 10 10 10 10 9 8 7 6 6 6 6 7 7 8 9 9 9 9 8 7 6 6 5 5 4 5 9 10 9 7 4 2 2 2 3 4 4 5 5 6 6 6 7 8 8 9 9 9 9 9 8
12 12 11 11 10 11 11 11 10 10 10 10 10 10 9 9 9 9 9 9 8 8 7 6 6 6 6 6 7 7 8 8 8 8 8 8 7 7 6 5 5 4 5 7 11 12 11 10 9 6 4 3 4 4 5 5 6 6 6 6 7 7 7 8 9 9 9 8 8
11 11 11 10 11 12 11 11 10 10 10 10 10 9 9 8 8 8 8 7 6 5 5 5 5 6 6 6 7 8 8 7 7 7 7 7 7 7 6 5 5 4 6 10 12 12 12 11 11 9 7 5 5 5 5 5 6 6 6 6 6 6 6 7 7 8 8 8 8
11 11 11 12 12 12 11 11 11 11 10 10 9 8 7 8 8 7 7 6 5 5 5 5 5 5 5 6 7 8 8 8 7 7 7 7 7 6 6 5 5 6 8 12 12 12 12 11 11 10 9 8 6 5 5 5 6 6 5 5 5 5 6 6 6 6 7 8 8
11 11 11 12 12 12 11 11 10 10 9 8 8 7 7 8 8 7 7 7 7 7 6 5 5 5 6 6 7 8 8 7 7 7 7 7 7 6 6 6 6 7 10 13 13 12 12 11 11 10 10 10 7 5 5 5 5 5 5 5 5 5 5 5 5 5 6 6 7
10 11 11 12 11 11 10 10 9 8 8 7 7 8 8 8 8 8 8 8 8 7 6 5 6 6 6 7 7 7 7 7 6 6 7 7 7 7 7 7 6 8 10 13 13 12 11 11 10 10 10 12 9 6 5 5 5 5 4 4 5 5 5 5 5 6 6 5 6
10 10 11 11 11 10 9 9 8 8 8 8 8 9 9 9 9 8 7 7 6 6 6 6 7 7 6 6 6 6 6 6 6 7 7 7 7 7 7 7 7 8 10 13 12 12 11 11 10 9 10 12 9 6 4 5 5 4 4 4 5 5 5 5 5 6 6 6 6
9 10 10 10 10 10 9 8 8 8 8 9 9 9 9 9 7 6 5 5 5 6 7 7 7 7 7 6 7 6 6 7 7 7 7 7 7 6 7 7 7 8 10 13 12 12 11 10 10 9 10 11 8 6 5 5 4 3 4 4 5 5 5 5 5 5 6 6 5
9 10 10 10 10 9 9 9 8 9 9 9 9 9 9 8 7 6 6 5 6 6 7 8 8 8 7 7 7 7 7 8 8 8 8 7 7 7 7 7 6 8 11 13 12 11 11 10 10 9 10 10 7 5 4 4 3 3 3 4 5 5 5 5 5 5 5 6 5
10 10 10 10 10 9 9 9 9 9 9 9 10 9 9 8 8 7 7 6 6 6 6 7 7 7 6 6 6 6 7 7 7 7 7 7 7 8 8 7 6 9 13 14 13 12 11 11 10 9 9 8 5 4 3 3 2 2 3 4 5 5 6 6 5 5 5 5 5
9 9 10 9 9 9 9 9 9 9 9 10 10 10 9 8 8 8 7 8 7 7 6 6 6 6 5 5 5 6 7 7 7 7 7 7 7 8 8 7 7 11 15 15 13 13 12 12 10 9 8 6 3 3 2 2 2 2 3 5 5 6 6 6 6 5 5 5 5
9 9 9 9 9 9 9 8 9 9 10 10 10 9 9 8 7 7 7 7 7 7 6 6 5 6 6 5 5 6 6 6 7 8 8 8 7 7 8 8 8 12 15 16 14 14 14 13 12 9 7 4 2 1 1 1 1 2 3 4 5 6 7 6 6 6 5 5 5
9 9 9 9 9 9 9 9 9 10 10 10 9 9 8 8 7 6 6 7 7 6 6 5 5 5 6 5 5 5 6 6 7 8 8 8 7 7 8 9 9 11 14 16 15 14 14 14 13 10 6 3 1 1 1 1 1 2 3 4 5 6 6 6 6 6 6 6 6
9 9 9 10 9 9 9 9 10 10 10 9 8 8 7 7 6 6 6 7 6 6 6 5 5 5 5 5 6 6 7 7 8 8 8 8 7 7 8 9 9 10 12 16 15 15 15 15 15 13 8 4 2 1 1 2 2 3 4 4 5 6 6 6 5 5 6 7 10
9 9 10 10 9 9 9 10 10 9 9 8 7 7 7 6 6 5 5 6 5 5 5 5 5 5 5 6 7 7 8 8 8 8 8 7 7 9 9 8 8 9 12 16 16 15 15 14 15 14 11 5 2 1 1 2 3 4 4 5 5 5 5 5 5 5 5 7 11
9 9 9 9 9 9 9 9 9 8 7 7 6 6 6 6 5 5 5 5 5 5 5 5 5 6 6 8 7 8 8 8 8 7 7 7 8 10 11 8 8 9 12 16 16 16 15 14 14 14 12 6 3 2 2 2 4 4 5 5 4 4 4 4 4 4 5 6 8
8 9 9 9 9 9 9 8 8 7 6 6 6 6 5 5 5 5 5 5 5 5 5 5 6 7 7 8 7 7 8 8 8 7 7 8 8 9 10 8 8 9 10 13 15 15 15 14 14 14 12 7 4 3 3 3 4 5 5 5 5 4 3 3 3 4 4 5 5
Wind_Direction
233 227 219 191 158 114 93 77 76 78 80 79 74 72 74 82 86 84 79 75 77 77 76 73 76 82 84 84 84 83 82 80 79 78 76 73 69 65 61 57 54 51 48 46 44 44 43 42 49 55 56 53 50 44 36 24 16 17 21 22 17 15 17 24 18 11 6 3 359
233 232 227 193 104 97 96 89 82 80 79 77 76 75 76 78 82 82 79 74 74 74 72 71 74 81 85 85 83 82 82 82 80 77 73 67 62 58 56 54 52 50 49 48 48 48 48 48 53 55 54 50 50 46 39 27 24 27 30 30 24 21 22 27 19 12 7 5 2
214 200 164 116 101 99 97 91 86 83 81 78 77 77 77 77 78 78 76 75 72 71 69 70 73 79 83 84 82 81 80 80 78 74 69 64 59 57 56 56 56 55 55 54 54 54 54 53 56 56 54 51 51 50 45 32 33 38 39 35 29 27 28 30 23 17 13 11 8
127 114 103 95 96 97 97 95 92 88 85 83 80 78 78 78 78 78 78 77 73 70 67 66 73 78 81 83 81 79 77 76 74 72 69 66 62 60 59 61 61 59 57 56 55 55 56 56 59 60 58 57 56 52 44 35 39 44 45 38 33 30 30 30 25 22 20 18 17
85 86 87 87 88 89 90 91 91 89 87 85 83 81 80 80 81 80 78 76 74 71 67 63 70 76 80 81 80 78 75 72 72 71 70 69 66 65 64 64 63 60 56 52 52 53 56 60 65 66 65 62 57 47 39 34 40 45 47 42 35 31 29 27 23 20 19 18 20
79 79 78 78 79 80 82 84 85 85 84 82 82 82 81 79 79 79 78 77 76 72 68 64 70 77 80 79 78 76 74 71 71 73 74 75 73 70 66 63 60 58 56 54 54 55 58 64 71 71 68 65 57 46 37 34 40 44 45 44 37 31 27 23 19 17 16 18 20
75 74 72 71 72 74 77 81 84 83 81 79 79 81 82 83 83 82 80 76 71 66 63 61 66 74 78 79 79 78 76 75 75 75 75 76 72 66 63 61 61 61 61 62 63 64 65 68 72 68 61 56 51 41 34 32 37 41 43 42 36 30 25 19 14 13 15 19 22
72 71 69 68 68 69 71 75 81 83 81 79 79 80 82 84 84 82 78 72 66 63 61 58 63 70 76 79 80 81 81 81 78 74 70 69 65 64 63 64 66 67 67 69 70 71 70 70 69 64 57 52 48 38 30 27 31 35 38 38 34 29 23 16 11 9 10 13 18
72 71 68 66 65 65 67 68 73 78 80 79 77 76 77 77 77 75 74 70 68 66 65 66 67 71 75 79 81 82 82 80 76 72 67 66 66 66 67 68 69 69 68 67 69 69 69 69 65 61 57 53 47 36 28 25 27 29 30 31 28 24 20 16 10 7 5 6 10
74 73 71 68 66 66 67 67 69 72 75 76 72 70 69 70 69 69 70 71 70 68 65 65 67 72 76 79 80 80 79 77 76 74 72 71 72 72 71 70 69 67 65 59 61 61 61 63 61 58 55 52 46 37 29 24 23 22 20 17 13 11 10 8 4 1 358 357 357
74 73 73 71 69 69 69 68 68 68 70 72 69 68 66 66 66 68 70 71 69 65 60 56 60 67 74 78 77 77 76 77 79 79 79 78 76 75 72 69 66 63 58 52 51 52 53 54 54 53 50 47 43 37 29 23 21 19 15 10 5 1 358 354 350 347 344 340 334
73 73 72 72 71 71 70 70 68 68 69 71 70 69 66 65 65 67 68 68 67 63 56 50 54 60 67 72 72 74 75 78 82 83 82 78 75 72 68 63 60 56 53 49 47 48 49 50 49 48 46 44 41 35 29 23 23 22 20 15 13 9 2 353 347 341 334 327 318
72 72 71 71 72 71 71 70 69 68 68 69 69 67 65 63 62 62 63 64 64 61 56 50 51 56 62 67 71 73 76 79 81 81 79 75 71 66 62 57 54 52 50 48 46 47 48 48 47 46 44 41 38 33 29 26 26 25 23 19 17 14 8 358 352 345 338 332 323
69 69 69 70 71 71 71 70 68 67 66 67 66 65 63 61 59 58 59 61 62 61 58 53 51 54 59 65 71 74 77 79 78 76 73 68 64 61 57 54 51 49 48 47 46 46 47 46 44 43 41 38 34 29 26 24 24 24 22 18 14 9 2 356 351 348 344 339 332
67 67 67 68 70 70 70 69 67 65 65 65 64 62 61 61 59 60 61 61 61 60 57 55 54 56 60 65 71 74 74 73 70 68 65 61 58 56 55 53 49 48 46 45 45 45 46 45 43 41 40 37 32 26 22 20 19 17 14 9 1 355 348 343 341 340 338 336 331
67 66 66 68 69 70 69 68 67 65 63 64 62 61 61 62 63 63 62 62 60 57 55 55 57 59 62 65 68 69 67 64 61 59 58 56 54 54 53 52 50 47 46 45 44 43 42 41 42 41 40 37 33 27 23 20 17 13 7 359 352 344 338 332 329 327 325 323 321
68 68 68 70 71 71 71 70 69 66 64 64 62 61 62 64 63 61 60 59 59 60 58 56 58 62 63 62 61 60 59 57 56 55 55 55 55 55 55 53 50 47 44 43 42 40 37 37 38 39 39 37 33 29 24 21 17 12 6 360 354 348 341 335 331 326 322 319 315
71 71 72 72 74 74 74 73 71 70 68 67 66 64 64 64 63 60 57 54 57 62 65 62 60 60 60 57 55 55 56 55 55 55 56 56 57 57 55 52 48 45 42 40 37 35 33 33 35 35 36 35 32 28 24 21 18 13 9 4 360 355 350 345 341 336 331 326 321
76 76 76 77 78 78 77 75 74 73 73 73 72 70 67 64 64 62 59 53 55 61 64 63 58 56 56 56 55 54 55 56 55 54 54 54 54 53 51 48 44 41 37 34 31 29 28 29 32 34 34 32 28 25 22 19 17 13 9 6 2 358 354 351 348 346 343 339 333
78 78 78 79 81 81 80 79 77 76 76 75 74 71 69 66 65 64 63 57 55 56 58 58 56 53 53 53 53 52 51 52 51 50 48 47 47 45 44 43 39 35 31 27 23 21 21 24 30 34 35 33 29 24 20 17 15 12 9 5 1 357 354 352 351 350 349 347 343
76 76 76 76 78 79 80 80 79 78 76 74 73 72 71 69 67 65 62 58 54 53 53 53 52 51 50 50 50 48 46 46 46 45 44 43 42 40 37 35 31 27 21 17 14 13 13 18 28 35 37 36 31 26 21 17 14 10 7 4 359 354 352 351 350 350 349 349 346
73 72 71 71 71 71 72 73 74 74 73 72 71 70 70 68 64 61 56 53 51 50 49 47 47 46 47 47 47 45 43 41 41 42 42 43 41 37 33 28 23 18 13 8 3 1 3 10 26 36 39 38 34 30 26 21 15 10 6 1 357 353 350 348 348 347 346 345 343
71 70 69 67 66 66 65 65 66 66 66 64 62 62 62 61 57 53 49 47 47 46 45 44 44 44 44 46 46 44 42 40 38 38 39 41 39 36 31 26 21 15 8 359 352 351 354 3 22 38 43 43 39 35 31 27 20 13 7 1 356 351 348 346 344 343 342 341 339
68 67 66 65 65 66 66 65 65 64 63 60 57 55 54 54 52 49 46 44 43 42 42 42 43 44 45 47 47 47 45 43 40 37 36 36 36 33 29 25 20 12 2 349 350 354 358 1 21 45 53 50 46 43 39 34 26 18 10 2 356 350 346 343 342 340 339 337 335
65 65 65 65 66 67 67 65 64 63 61 60 56 52 49 48 48 47 45 43 41 41 41 42 44 45 47 47 47 47 47 46 43 39 35 32 30 27 25 22 15 5 352 344 356 0 3 2 10 34 69 66 53 47 42 37 29 22 14 6 358 351 346 341 340 337 335 333 331
64 64 64 65 66 65 63 61 60 58 57 54 52 49 46 45 47 47 47 45 42 41 42 42 43 44 45 44 43 42 42 42 41 39 36 30 25 22 20 17 9 358 350 353 1 3 4 3 5 15 41 77 58 48 42 36 28 22 16 8 360 352 346 340 336 333 331 329 328
62 63 63 63 62 60 58 56 55 53 52 51 49 48 46 46 49 50 49 47 44 42 41 40 40 40 41 41 40 38 37 36 35 34 32 29 24 20 16 11 5 355 352 358 4 5 5 6 5 9 24 69 61 53 44 35 26 21 15 7 359 351 343 336 330 328 327 326 325
61 62 62 61 59 57 55 52 52 50 49 48 47 47 46 47 49 48 47 44 41 39 37 33 32 34 35 36 35 34 33 31 29 28 26 24 21 17 12 7 359 354 354 0 5 6 6 7 6 7 18 53 62 58 46 39 28 20 13 4 355 346 338 332 327 325 324 324 324
60 60 59 58 56 54 52 50 49 48 47 46 45 44 44 44 43 42 39 37 35 33 31 26 26 29 31 31 29 29 28 26 25 24 22 20 16 12 8 3 356 353 355 1 5 6 6 7 6 7 20 52 63 60 46 41 31 21 11 359 350 341 334 328 323 322 322 322 324
55 56 56 56 54 52 50 48 47 46 44 44 42 41 41 40 38 35 34 32 31 30 27 25 27 29 29 27 26 26 26 23 22 23 23 21 15 10 4 1 357 352 353 360 4 6 6 8 4 10 30 59 65 62 50 43 33 21 7 352 341 333 328 322 319 318 319 322 325
52 54 55 55 53 51 49 46 45 44 43 42 41 41 40 39 35 33 31 30 28 26 25 27 30 29 27 25 26 27 26 24 24 24 23 21 15 9 3 0 355 349 351 359 4 6 7 8 4 19 43 65 66 62 52 43 32 17 359 343 333 328 324 320 320 320 320 322 325
50 52 53 54 52 49 47 44 44 43 43 43 42 42 41 38 35 32 30 29 28 26 26 28 29 28 26 24 26 27 28 28 26 24 22 20 14 8 4 3 355 350 352 1 6 8 8 7 10 31 55 70 70 67 58 47 30 9 348 334 325 322 319 319 319 318 319 320 322
48 50 52 52 50 48 45 43 43 43 44 44 43 42 40 37 33 30 29 29 30 29 30 31 31 30 29 28 29 29 30 30 27 24 20 18 15 11 9 7 356 352 356 4 8 10 9 8 18 42 63 74 75 72 63 50 27 1 340 328 320 317 315 314 315 316 317 318 319
48 49 50 50 48 46 44 42 42 43 43 43 41 39 37 35 31 29 27 28 29 31 33 35 36 36 35 34 34 33 31 29 25 21 18 15 15 14 12 8 356 356 360 6 9 11 12 11 27 49 68 77 78 76 68 54 23 349 330 321 317 315 315 315 313 313 314 316 319
49 51 51 50 48 46 44 43 43 43 44 43 40 38 36 35 32 29 28 29 33 35 36 38 40 41 40 39 39 37 33 28 23 20 18 16 16 16 13 7 357 358 1 7 11 13 15 15 30 52 73 82 78 76 72 61 18 337 322 319 317 316 314 313 312 311 312 315 319
52 54 55 53 51 48 47 45 46 46 45 44 41 38 36 35 32 30 30 33 38 40 41 40 41 41 41 37 36 35 33 28 24 21 19 17 17 17 14 7 0 359 0 6 11 14 15 16 25 46 73 90 75 58 59 60 359 327 321 321 318 315 312 310 309 310 312 317 319
52 54 56 55 52 50 48 48 48 47 46 44 41 39 37 36 33 31 32 37 43 44 43 41 40 38 36 36 33 30 28 29 27 23 20 16 17 18 17 11 3 359 359 4 11 13 13 13 15 27 53 95 68 19 4 356 337 330 327 324 318 313 310 308 310 314 319 322 325
51 52 54 54 52 50 48 48 47 47 45 43 41 39 38 39 37 36 37 41 46 47 44 41 36 32 29 30 30 27 25 28 28 26 22 15 15 20 23 16 7 360 359 4 9 10 11 11 7 13 27 78 60 8 335 328 334 334 330 324 316 312 311 311 319 324 327 327 331
49 51 52 52 51 49 48 48 47 46 44 42 40 39 38 40 39 38 38 42 46 47 45 40 33 25 23 27 28 24 21 23 26 26 24 17 17 23 26 22 10 2 1 3 5 6 7 8 3 6 16 55 54 9 324 326 333 332 327 319 314 311 312 316 325 330 329 327 332
48 50 51 51 50 49 48 47 46 44 44 43 41 39 39 40 40 39 37 39 41 43 42 39 30 25 24 28 28 23 18 16 19 22 22 19 20 23 25 23 13 5 1 0 1 2 3 4 0 2 10 40 41 13 339 338 333 328 322 314 312 313 316 323 328 329 327 323 327
48 49 49 49 48 47 47 45 43 42 42 43 41 39 38 40 38 36 35 36 35 35 35 34 29 27 26 28 27 23 17 14 12 14 18 20 20 21 21 18 12 6 0 356 356 357 359 0 358 360 5 20 25 12 352 342 332 324 319 316 319 325 332 334 331 328 325 320 319